User: anonymous   Login
Location: Heilwood
(40.6210°N, 78.9150°W)
Time: 12:29:26
(UTC-04:00)
Language:

BREEZE-M DEB (TANK) - Orbit

View from above orbital plane
View from above orbital plane
View from above satellite
View from above satellite

Ground track
Ground track

The orbit data is extracted from the following two-line orbital elements,

1 29649U 06056B   17263.12304433 -.00000316  00000-0 -18405-4 0  9990
2 29649  49.4692 164.4352 5375325 220.6810  83.4273  4.99729685192514
Epoch (UTC): 20 September 2017 02:57:11
Eccentricity: 0.5375325
inclination: 49.4692°
perigee height: 305 km
apogee height: 15841 km
right ascension of ascending node: 164.4352°
argument of perigee: 220.6810°
revolutions per day: 4.99729685
mean anomaly at epoch: 83.4273°
orbit number at epoch: 19251

The dashed part of the orbit path shows where the satellite is in the earth's shadow,  

DLR